Regional Weather Roundup
Issued by NWS

Home | Current Version | Previous Version | Graphics & Text | Print | Product List | Glossary On
Versions: 1 2 3 4 5 6 7 8 9 10 11 12 13 14 15 16 17 18 19 20 21 22 23 24 25 26 27 28 29 30 31 32 33 34 35 36 37 38 39 40 41 42 43 44 45 46 47 48 49 50
236
ASUS45 KCYS 230810
RWRWY

WYOMING REGIONAL WEATHER ROUNDUP
NATIONAL WEATHER SERVICE CHEYENNE WY
200 AM MDT SUN APR 23 2017

NOTE:  "FAIR" INDICATES FEW OR NO CLOUDS BELOW 12,000 FEET
WITH NO SIGNIFICANT WEATHER AND/OR OBSTRUCTIONS TO VISIBILITY.

WYZ001-230900-
YELLOWSTONE NATIONAL PARK

CITY           SKY/WX    TMP DP  RH WIND       PRES   REMARKS
LK YELLOWSTONE   N/A     28  25  88 CALM      30.06F
W YELLOWSTONE  NOT AVBL

$$
WYZ002>013-054>058-071-098>099-230900-
NORTHERN WYOMING

CITY           SKY/WX    TMP DP  RH WIND       PRES   REMARKS
JACKSON        FAIR      30  28  93 N5        30.02F WCI  25
CODY           FAIR      41  37  86 CALM      29.95F
GREYBULL       FAIR      42  37  82 SE3       29.91F
WORLAND        FAIR      41  40  96 CALM      29.91F
SHERIDAN       FAIR      38  35  89 W5        29.91S WCI  34
BUFFALO        FAIR      42  31  64 SW6       29.92F
GILLETTE       FAIR      47  34  60 S20       29.90F
HULETT         FAIR      52  30  43 S15G22    29.94F
NEWCASTLE      FAIR      45  30  57 SE14G21   30.01F

$$
WYZ014>020-022>026-101>103-230900-
CENTRAL WYOMING

CITY           SKY/WX    TMP DP  RH WIND       PRES   REMARKS
BIG PINEY      FAIR      29  24  82 CALM      30.06F
PINEDALE       FAIR      30  23  74 NW3       30.07F
DUBOIS         FAIR      34  21  60 NW14      30.01F WCI  24
LANDER         FAIR      45  29  53 CALM      29.95F
RIVERTON       FAIR      45  33  63 NW7       29.97F
CASPER         FAIR      43  33  68 SW12      29.98F
DOUGLAS        FAIR      40  32  73 SE5       30.00F

$$
WYZ021-027>030-104>119-230900-
SOUTHERN WYOMING

CITY           SKY/WX    TMP DP  RH WIND       PRES   REMARKS
EVANSTON       FAIR      40  24  53 S8        30.04F WCI  34
KEMMERER         N/A     32  28  86 N6        30.06F WCI  26
FORT BRIDGER   FAIR      38  22  51 S10       30.07F WCI  31
ROCK SPRINGS   FAIR      41  23  48 SE10      30.06F
DIXON            N/A     35  25  66 SE5       30.14F WCI  31
RAWLINS        FAIR      38  20  48 CALM      30.07F
SARATOGA       FAIR      34  21  60 SE9       30.10S WCI  26
LARAMIE        FAIR      33  26  75 S15       30.08F WCI  23
CHEYENNE       FAIR      36  29  75 W7        30.09F WCI  30
TORRINGTON     FAIR      44  30  57 SE10      30.04F
PINE BLUFFS    FAIR      37  32  81 S13G20    30.10F WCI  29

$$




USA.gov is the U.S. government's official web portal to all federal, state and local government web resources and services.